Weather in Dobropillia

Ukraine / Donetsk Region     48°28′07″N   37°04′58″E
temp.,
°C
wind,
m/s
gust,
m/s
humid.,
%
clouds,
%
prec.,
mm/h
press.,
hPa
HPBL,
m
19 april, mon
mon1900:00+9s377279 0.0 1016177
03:00+8ssw3578100 0.0 1016125
06:00+8s2278100 0.0 101564
09:00+11ssw2261100 0.0 1015421
12:00+15ssw224599 0.1 10131882
15:00+14wnw2248100 0.3 10131500
18:00+14ssw1153100 0.1 1013908
21:00+12nw2265100 0.3 101324
20 april, tue
tue2000:00+11nne2268100 0.0 101246
03:00+10ene367076 0.0 1010147
06:00+9ene377890 0.0 1008209
09:00+11ese5882100 0.6 1006522
12:00+11e6984100 3.3 1003901
15:00+12e4678100 4.1 1000623
18:00+10nw5796100 7.6 999479
21:00+9w6991100 9.4 1003545
21 april, wed
wed2100:00+9w6996100 1.4 1006578
03:00+8wsw6119099 2.3 1009515
06:00+6sw511905 0.1 1011305
09:00+11wsw69655 0.1 1013894
12:00+14wsw795333 0.1 10141874
15:00+15wsw6848100 0.3 10142008
18:00+13sw3760100 0.0 1015497
21:00+11sw3368100 0.1 101747
22 april, thu
thu2200:00+10ssw347596 0.0 101891
03:00+8ssw3482100 0.0 101982
06:00+8ssw3594100 0.4 1020126
09:00+12s467375 0.8 1020588
12:00+15ssw67505 0.6 10201732
15:00+17sw664790 0.6 10192096
18:00+15ssw565757 0.3 1020723
21:00+11ssw377910 1.0 1021122
23 april, fri
fri2300:00+9ssw388816 0.0 1021150
03:00+9ssw3787100 0.0 1021169
06:00+9s3586100 0.0 1021126
09:00+13sw457095 0.0 1021452
12:00+17sw56488 0.0 10202005
15:00+17sw5640100 0.0 10192018
18:00+16sw474967 0.0 1018307
21:00+13ssw6116286 0.0 1019373